Address 0xdedbc5443016e9950e1181bfd2577ef8d3743b49 4

Txn Hash Method
Block
From
To
Value [Txn Fee]
0x5623efe75059112044f1c0b0a8901250e082af9720747cc6b1cc824cd22250d80x60c0604098574572021-06-19 2:28:3196 days 23 hrs ago0xdedbc5443016e9950e1181bfd2577ef8d3743b49OUT Contract Creation0 BNB0.04773301
0x22e2d9b3342dcfde94a0fe763e260ff6682baf41eab343efcbf33b08a95be3df0x6004805498142262021-06-17 14:26:5898 days 12 hrs ago0xdedbc5443016e9950e1181bfd2577ef8d3743b49OUT Contract Creation0 BNB0.05535182
0x18e6f83674f0bfcd16bfd6d2555714457e04e87deeeae6cb44446b3718ffcf6e0x6108d06198142232021-06-17 14:26:4998 days 12 hrs ago0xdedbc5443016e9950e1181bfd2577ef8d3743b49OUT Contract Creation0 BNB0.00540119
0xb6aed52fcb899bf7f06a8506d50bf790aa5fc4aa54ad3e15794d333a8624d932Migrate Token98120602021-06-17 12:38:4098 days 13 hrs ago0xdedbc5443016e9950e1181bfd2577ef8d3743b49OUT 0x372c569551002d47499cd8f2a57b238725ed09a40 BNB0.0004673
0xe134ade875865d3856bf928778354599b4a5a559362176ec8c08c34f7926f6300x6004805498120122021-06-17 12:36:1698 days 13 hrs ago0xdedbc5443016e9950e1181bfd2577ef8d3743b49OUT Contract Creation0 BNB0.05521646
0x560208203bab441fe46bdc7b0a32faba040148762e5a3e40c2e0567bd01891860x6109006198118752021-06-17 12:29:2598 days 13 hrs ago0xdedbc5443016e9950e1181bfd2577ef8d3743b49OUT Contract Creation0 BNB0.00550461
0x4b18fcc93f0e6e7e4f35c70b93681bf4afe70b23b2d2f1fa1dd3cf4ae87cd02a0x6109006198118612021-06-17 12:28:4398 days 13 hrs ago0xdedbc5443016e9950e1181bfd2577ef8d3743b49OUT Contract Creation0 BNB0.00550461
0xe4ed26c131b61fdb04587b047f4e874213d4f6eb44fdbd67c32c924eddd7f0ee0x6056602398118532021-06-17 12:28:1998 days 13 hrs ago0xdedbc5443016e9950e1181bfd2577ef8d3743b49OUT Contract Creation0 BNB0.00071933
0x97d0519c477052a16bcc0d435a306586846cc24f41fe13c9919c8d06e3c9bbdb0x6004805498111912021-06-17 11:55:1398 days 14 hrs ago0xdedbc5443016e9950e1181bfd2577ef8d3743b49OUT Contract Creation0 BNB0.05521646
0xad4bdf669e85ccde15f7d40953af4d6f1e636106ccf4f3149b6ef9605bde22fb0x6109006198111782021-06-17 11:54:3498 days 14 hrs ago0xdedbc5443016e9950e1181bfd2577ef8d3743b49OUT Contract Creation0 BNB0.00550461
0x401a3b4ecfba1cb1dffb996525371af8360cf8080a26db8c8c7154cb196adfafTransfer98092612021-06-17 10:18:4398 days 16 hrs ago0xaa25aa7a19f9c426e07dee59b12f944f4d9f1dd3 IN 0xdedbc5443016e9950e1181bfd2577ef8d3743b491 BNB0.000378
0xf6d95a6d4311d3de98a5bb24cfac8bc5677301472232851adc5b21accbb0e12f0x6004805498092502021-06-17 10:18:1098 days 16 hrs ago0xdedbc5443016e9950e1181bfd2577ef8d3743b49OUT Contract Creation0 BNB0.05521646
0x3b7b089fb1bb827e171c09b41e69f38a1a7aa979d1a1ee462dde7c105f8f28c40x6109006198092452021-06-17 10:17:5598 days 16 hrs ago0xdedbc5443016e9950e1181bfd2577ef8d3743b49OUT Contract Creation0 BNB0.00550461
0x22517b800c2911337f4de924e41b871ef6b25ef0f75c088f39cb695267f0046e0x6109006198092272021-06-17 10:17:0198 days 16 hrs ago0xdedbc5443016e9950e1181bfd2577ef8d3743b49OUT Contract Creation0 BNB0.00550461
0x4f48fb310e792ee09a9bec04e024ffbbe8e6e58506d6888f714d17f1a4dedaa9Transfer97749802021-06-16 5:44:2699 days 20 hrs ago0xdedbc5443016e9950e1181bfd2577ef8d3743b49OUT 0xbbd58a1c7d44e28acef63c015e53879c156c7d360 BNB0.00129638
0xef278d72c3fe6f274e8bbcfb3983ff35fb9181bebfc34d5d55c14fd3e7c50a880x6004805497749352021-06-16 5:42:1199 days 20 hrs ago0xdedbc5443016e9950e1181bfd2577ef8d3743b49OUT Contract Creation0 BNB0.05521761
0x57d0886f88f3178eeb4803cc26c0938398f96ce8eccc4b202d2de2fa530ec3af0x61081b6197749302021-06-16 5:41:5699 days 20 hrs ago0xdedbc5443016e9950e1181bfd2577ef8d3743b49OUT Contract Creation0 BNB0.00501121
0x226d6e3146f0fde2fa61251db219fbbcefa62245c9a66074350c8074f85443c70x6080604097516322021-06-15 10:17:01100 days 16 hrs ago0xdedbc5443016e9950e1181bfd2577ef8d3743b49OUT Contract Creation0 BNB0.0157315
0xab27bec427e9cc26814b9fab7b7f2cb54feaba131d1d02d90f45d8fd298d46f40x6004805497496502021-06-15 8:37:55100 days 17 hrs ago0xdedbc5443016e9950e1181bfd2577ef8d3743b49OUT Contract Creation0 BNB0.05521749
0x87252eab3dd6882d3489c5bc29adeccc59a7aee8a9d528f847424daa92b1f5350x6109006197496352021-06-15 8:37:10100 days 17 hrs ago0xdedbc5443016e9950e1181bfd2577ef8d3743b49OUT Contract Creation0 BNB0.00550461
0x3d77290d1b4ff8df2e17459a4b9e2d2d0046f0f18cf8b3ec97ad0b244b8b16f6Transfer86773062021-05-09 1:09:46138 days 1 hr ago0xaa25aa7a19f9c426e07dee59b12f944f4d9f1dd3 IN 0xdedbc5443016e9950e1181bfd2577ef8d3743b496.25 BNB0.000378
0x0b401c23689ac04f1ce6b8ab7b259e372716b464f3f4048f1260d5d36a1bbb1cBurn86657402021-05-08 15:31:28138 days 10 hrs ago0xdedbc5443016e9950e1181bfd2577ef8d3743b49OUT 0xdb86cf807b18f3a60d97ab29cdc65145f36511580 BNB0.0002149
0x03680a930bd0f2ca12690d753e94136838886e54b2b7cdad4e111839b3a87f70Swap Exact BNB F...86357722021-05-07 14:32:24139 days 11 hrs ago0xdedbc5443016e9950e1181bfd2577ef8d3743b49OUT 0xcde540d7eafe93ac5fe6233bee57e1270d3e330f3 BNB0.00108919
0x434e9c6b4c2f9b666ef553e199e9fbbfa324569f13561dfa613115b43f077868Stake86357582021-05-07 14:31:42139 days 11 hrs ago0xdedbc5443016e9950e1181bfd2577ef8d3743b49OUT 0x590536b46cd6c879fb1b78ff57ddf1336be138270 BNB0.00189779
0x7f33b3fbd87e7280493631ecce3b409c2229d1511d862fc4e009767c429fd6ddDeposit86356932021-05-07 14:28:27139 days 11 hrs ago0xdedbc5443016e9950e1181bfd2577ef8d3743b49OUT 0x20ec291bb8459b6145317e7126532ce7ece5056f0 BNB0.00137249
[ Download CSV Export 
Latest 6 internal transactions
Parent Txn Hash Block From To Value
0xa1b42ffe5cb6ddd3c9e6e0528ddacb48c3363c971a1216c7f10cb97436844d1286356052021-05-07 14:24:03139 days 12 hrs ago 0xcde540d7eafe93ac5fe6233bee57e1270d3e330f0xdedbc5443016e9950e1181bfd2577ef8d3743b497.868462329416754867 BNB
0x7f7838beeb1213442aac144ebc80100d74f949f7159c5ec8d897260306e4035586354742021-05-07 14:17:30139 days 12 hrs ago 0xcde540d7eafe93ac5fe6233bee57e1270d3e330f0xdedbc5443016e9950e1181bfd2577ef8d3743b493.481427595745583458 BNB
0x00836f8d1476f385a62a7094594050eb942c392e9178dbbcb6f143a2eb80a79a85783862021-05-05 14:41:44141 days 11 hrs ago 0xcde540d7eafe93ac5fe6233bee57e1270d3e330f0xdedbc5443016e9950e1181bfd2577ef8d3743b494.687642502129839786 BNB
0xc31660f1bf7a2b6a124a55468f514413fb3d0d101d0ce3f8c5308316d9c7a24785721602021-05-05 9:30:26141 days 16 hrs ago 0xcde540d7eafe93ac5fe6233bee57e1270d3e330f0xdedbc5443016e9950e1181bfd2577ef8d3743b491.035697298186622634 BNB
0x96a1bbbb9c055fa2eb0dca08a580e6a357a3907c80546402c9ebae6de67e8d0f85721482021-05-05 9:29:50141 days 16 hrs ago 0xcde540d7eafe93ac5fe6233bee57e1270d3e330f0xdedbc5443016e9950e1181bfd2577ef8d3743b495.015859881705118381 BNB
0xae5b75730a9e51eace16ef0147fcdbf179cbd832bc73495e058275a7fe5c46c485720112021-05-05 9:22:59141 days 17 hrs ago 0xcde540d7eafe93ac5fe6233bee57e1270d3e330f0xdedbc5443016e9950e1181bfd2577ef8d3743b4915.34265260528784233 BNB
[ Download CSV Export 
Loading

Contract Name:
0 BNB

Compiler Version
0

Optimization Enabled:
0 BNB

Other Settings:
-NA-
Block Transaction Gas Used Reward
Age Block Fee Address BC Fee Address Voting Power Jailed Incoming
Block Uncle Number Difficulty Gas Used Reward
Loading